Location: Borojevi?i
(45.0486°N, 16.2297°E)
Time: 05:07:20
(UTC+00:00)

Cosmos 1697 Rocket - Pass Details

Date: 08 August 2020
Orbit: 834 x 842 km, 71.0° (Epoch: 19 September)

Event Time Altitude Azimuth Distance (km) Brightness Sun altitude
Rises 20:52:38 0° 323° (NW) 3,389 7.3 -22.6°
Reaches altitude 10° 20:55:27 10° 311° (NW) 2,451 6.1 -22.8°
Maximum altitude 20:59:55 25° 258° (WSW) 1,631 4.3 -23.3°
Enters shadow 21:02:36 18° 219° (SW) 1,963 4.4 -23.5°
